This is the latest recevied weather packets stored in our database for station/object CT1EDG-13. If no packets are shown the sender has not sent any weather packets the latest 10 day(s).
| Time | Temp. | Humidity | Pressure | Rain* | Wind** | Luminosity | Snow |
|---|---|---|---|---|---|---|---|
| 1788537824 | 30.56° C | 67% | 1008.8 hPa | 0 mm | - | - | - |
| 1788537823 | 30.56° C | 67% | 1008.8 hPa | 0 mm | - | - | - |
| 1788537224 | 28.89° C | 73% | 1009 hPa | 0 mm | - | - | - |
| 1788537223 | 28.89° C | 73% | 1009 hPa | 0 mm | - | - | - |
| 1788536625 | 29.44° C | 77% | 1009.6 hPa | 0 mm | - | - | - |
| 1788536623 | 29.44° C | 77% | 1009.6 hPa | 0 mm | - | - | - |
| 1788536025 | 29.44° C | 79% | 1010.4 hPa | 0 mm | - | - | - |
| 1788536023 | 29.44° C | 79% | 1010.4 hPa | 0 mm | - | - | - |
| 1788535424 | 29.44° C | 80% | 1010.8 hPa | 0 mm | - | - | - |
| 1788535423 | 29.44° C | 80% | 1010.8 hPa | 0 mm | - | - | - |
| 1788534824 | 28.89° C | 82% | 1011 hPa | 0 mm | - | - | - |
| 1788534823 | 28.89° C | 82% | 1011 hPa | 0 mm | - | - | - |
| 1788534225 | 28.33° C | 85% | 1010.9 hPa | 0 mm | - | - | - |
| 1788534223 | 28.33° C | 85% | 1010.9 hPa | 0 mm | - | - | - |
| 1788533625 | 28.33° C | 85% | 1011 hPa | 0 mm | - | - | - |
| 1788533623 | 28.33° C | 85% | 1011 hPa | 0 mm | - | - | - |
| 1788533024 | 27.22° C | 89% | 1011.1 hPa | 0 mm | - | - | - |
| 1788533023 | 27.22° C | 89% | 1011.1 hPa | 0 mm | - | - | - |
| 1788532424 | 26.67° C | 89% | 1011.1 hPa | 0 mm | - | - | - |
| 1788532423 | 26.67° C | 89% | 1011.1 hPa | 0 mm | - | - | - |
| 1788531824 | 27.78° C | 87% | 1011 hPa | 0 mm | - | - | - |
| 1788531823 | 27.78° C | 87% | 1011 hPa | 0 mm | - | - | - |
| 1788531222 | 29.44° C | 82% | 1010.8 hPa | 0 mm | - | - | - |
| 1788531221 | 29.44° C | 82% | 1010.8 hPa | 0 mm | - | - | - |
| 1788530644 | 30.56° C | 76% | 1010.4 hPa | 0 mm | - | - | - |
* Rain latest hour (hover to see other rain measurements)
** Current wind speed in m/s (hover to see current wind gust speed)